Voltar ao catálogo

RADIO 4

AtivoRádio AmadorPO
NORAD 13000·PAYLOAD·🇷🇺 Russia

Lançado Dec 17, 1981 de Plesetsk Cosmodrome

Loading…

Próximas Passagens (próximas 24 horas)

TLE

AtualizadoSource: Space-Track

Época: Sep 14, 2026, 07:05 UTC

1 13000U 81120D   26257.29582565  .00000092  00000-0  93878-3 0  9999
2 13000  82.9663  11.8185 0017416 351.5978  35.6897 12.06920168970909

Acompanhe RADIO 4 em tempo real com AllMySat

Download on the App Store